Weather History for Anchialos, Greece

Change the Weather History Date:

Sunday, December 2, 2012

  Actual Average Record
Temperature  
Mean Temperature 50 °F -  
Max Temperature 57 °F - - ()
Min Temperature 44 °F - - ()
Degree Days  
Heating Degree Days 14    
Moisture  
Dew Point 44 °F    
Average Humidity 77    
Maximum Humidity 88    
Minimum Humidity 58    
Precipitation  
Precipitation 0.00 in - - ()
Sea Level Pressure  
Sea Level Pressure 29.84 in    
Wind  
Wind Speed 4 mph ()    
Max Wind Speed 23 mph    
Max Gust Speed -    
Visibility 6.1 miles    
Events Rain    
T = Trace of Precipitation, MM = Missing Value Source: Averaged Metar Reports

Daily Weather History Graph

Daily Weather History Graph

Search for Another Location

Airport:

Trip Planner

Search our weather history database for the weather conditions in past years. The results will help you decide how hot, cold, wet, or windy it might be!

Date:

Astronomy

Dec. 02, 2012 Rise Set
Actual Time 7:30 AM EET 5:06 PM EET
Civil Twilight 7:00 AM EET 5:35 PM EET
Nautical Twilight 6:27 AM EET 6:08 PM EET
Astronomical Twilight 5:55 AM EET 6:41 PM EET
Moon 8:34 PM EET (12/2) 10:09 AM EET (12/2)
Length of Visible Light 10h 34m
Length of Day
9h 35m
Waning Gibbous, 87% of the Moon is Illuminated
Dec 2
Waning Gibbous
Dec 6
Last Quarter
Dec 13
New
Dec 20
First Quarter
Dec 28
Full

Hourly Weather History & Observations

Time (EET) Temp. Windchill Dew Point Humidity Pressure Visibility Wind Dir Wind Speed Gust Speed Precip Events Conditions
12:50 AM 51.8 °F - 39.2 °F 62% 29.98 in 6.2 mi Calm Calm - N/A   Partly Cloudy
1:50 AM 50.0 °F - 39.2 °F 66% 29.98 in 6.2 mi Calm Calm - N/A   Partly Cloudy
2:50 AM 46.4 °F - 39.2 °F 76% 29.98 in 6.2 mi Calm Calm - N/A   Partly Cloudy
3:50 AM 46.4 °F - 39.2 °F 76% 29.98 in 6.2 mi Calm Calm - N/A   Partly Cloudy
4:50 AM 46.4 °F - 39.2 °F 76% 29.95 in 6.2 mi Calm Calm - N/A   Scattered Clouds
5:20 AM 46.4 °F - 39.2 °F 76% 29.95 in 6.2 mi Calm Calm - N/A   Scattered Clouds
5:50 AM 44.6 °F 41.4 °F 39.2 °F 81% 29.98 in 6.2 mi SW 5.8 mph - N/A   Scattered Clouds
6:20 AM 46.4 °F - 41.0 °F 81% 29.95 in 6.2 mi Calm Calm - N/A   Scattered Clouds
6:50 AM 46.4 °F - 39.2 °F 76% 29.95 in 6.2 mi Calm Calm - N/A   Partly Cloudy
7:20 AM 44.6 °F - 39.2 °F 81% 29.95 in 6.2 mi Calm Calm - N/A   Partly Cloudy
7:50 AM 44.6 °F 42.2 °F 39.2 °F 81% 29.95 in 6.2 mi West 4.6 mph - N/A   Partly Cloudy
8:20 AM 44.6 °F 42.2 °F 41.0 °F 87% 29.92 in 6.2 mi West 4.6 mph - N/A   Scattered Clouds
8:50 AM 46.4 °F 43.5 °F 42.8 °F 87% 29.95 in 6.2 mi WSW 5.8 mph - N/A   Scattered Clouds
9:20 AM 48.2 °F - 44.6 °F 87% 29.92 in 6.2 mi Calm Calm - N/A   Mostly Cloudy
9:50 AM 51.8 °F - 44.6 °F 76% 29.92 in 6.2 mi Calm Calm - N/A   Mostly Cloudy
10:50 AM 55.4 °F - 46.4 °F 72% 29.92 in 6.2 mi Calm Calm - N/A   Mostly Cloudy
11:20 AM 55.4 °F - 46.4 °F 72% 29.92 in 6.2 mi Calm Calm - N/A   Mostly Cloudy
11:50 AM 57.2 °F - 48.2 °F 72% 29.86 in 6.2 mi Calm Calm - N/A   Mostly Cloudy
12:20 PM 57.2 °F - 50.0 °F 77% 29.86 in 6.2 mi WSW 6.9 mph - N/A   Overcast
12:50 PM 55.4 °F - 46.4 °F 72% 29.86 in 6.2 mi SSW 8.1 mph - N/A   Mostly Cloudy
1:20 PM 55.4 °F - 46.4 °F 72% 29.86 in 6.2 mi WNW 11.5 mph - N/A   Overcast
1:50 PM 53.6 °F - 46.4 °F 77% 29.86 in 6.2 mi West 9.2 mph - N/A Rain Light Rain
2:20 PM 51.8 °F - 46.4 °F 82% 29.83 in 6.2 mi WNW 6.9 mph - N/A   Overcast
2:50 PM 53.6 °F - 48.2 °F 82% 29.80 in 6.2 mi West 6.9 mph - N/A   Mostly Cloudy
3:50 PM 55.4 °F - 48.2 °F 77% 29.71 in 6.2 mi SW 4.6 mph - N/A   Mostly Cloudy
4:20 PM 55.4 °F - 48.2 °F 77% 29.68 in 6.2 mi Calm Calm - N/A   Mostly Cloudy
4:50 PM 53.6 °F - 48.2 °F 82% 29.65 in 6.2 mi Calm Calm - N/A   Mostly Cloudy
5:20 PM 53.6 °F - 50.0 °F 88% 29.65 in 6.2 mi WSW 6.9 mph - N/A Rain Light Rain
5:50 PM 51.8 °F - 46.4 °F 82% 29.71 in 3.1 mi West 23.0 mph - N/A Rain Rain
6:20 PM 51.8 °F - 46.4 °F 82% 29.68 in 6.2 mi West 20.7 mph - N/A   Overcast
6:50 PM 51.8 °F - 46.4 °F 82% 29.68 in 6.2 mi West 17.3 mph - N/A Rain Light Rain
7:20 PM 51.8 °F - 46.4 °F 82% 29.71 in 6.2 mi West 23.0 mph - N/A   Mostly Cloudy
7:50 PM 51.8 °F - 46.4 °F 82% 29.71 in 6.2 mi WSW 17.3 mph - N/A   Mostly Cloudy
8:50 PM 51.8 °F - 44.6 °F 76% 29.68 in 6.2 mi North 5.8 mph - N/A   Scattered Clouds
9:50 PM 50.0 °F - 42.8 °F 76% 29.68 in 6.2 mi NW 8.1 mph - N/A   Scattered Clouds
10:50 PM 50.0 °F - 42.8 °F 76% 29.68 in 6.2 mi NNW 6.9 mph - N/A   Partly Cloudy
11:50 PM 55.4 °F - 41.0 °F 58% 29.68 in 6.2 mi West 11.5 mph - N/A   Partly Cloudy